カタログに戻る

SCOUT X-4 R/B

運用中LEO
NORAD 1358·ROCKET BODY·🇺🇸 United States

打ち上げ Apr 29, 1965 から Wallops Flight Facility

Loading…

次のパス (今後24時間)

TLE

最新Source: Space-Track

元期: Sep 14, 2026, 09:47 UTC

1 01358U 65032B   26257.40769255 -.00000065  00000-0  26184-4 0  9990
2 01358  41.1915  46.6592 0243975 326.5603  31.9951 13.38253040999629

AllMySatでSCOUT X-4 R/Bをリアルタイム追跡

Download on the App Store